User: anonymous   Login
Location: Unspecified
(0.0000°N, 0.0000°E)
Time: 15:53:19
(UTC+00:00)
Language:

Marecs 2 - Orbit

View from above orbital plane
View from above orbital plane
View from above satellite
View from above satellite

Ground track
Ground track

The orbit data is extracted from the following two-line orbital elements,

1 15386U 84114B   18203.45292066 -.00000165  00000-0  00000+0 0  9991
2 15386  16.4625 355.8195 0115941 341.7147 206.9757  0.95927618 84963
Epoch (UTC): 22 July 2018 10:52:12
Eccentricity: 0.0115941
inclination: 16.4625°
perigee height: 36546 km
apogee height: 37553 km
right ascension of ascending node: 355.8195°
argument of perigee: 341.7147°
revolutions per day: 0.95927618
mean anomaly at epoch: 206.9757°
orbit number at epoch: 8496

The dashed part of the orbit path shows where the satellite is in the earth's shadow,  

DLR